Time,TemperatureF,DewpointF,PressureIn,WindDirection,WindDirectionDegrees,WindSpeedMPH,WindSpeedGustMPH,Humidity,HourlyPrecipIn,Conditions,Clouds,dailyrainin,SoftwareType,DateUTC
2013-02-07 00:03:00,50.0,39.1,30.05,ESE,112,0.0,-999.0,66,0.00,,,0.00,open2300 v1.10,2013-02-07 06:03:00,
2013-02-07 00:10:00,49.8,38.5,30.04,ESE,112,0.0,-999.0,65,0.00,,,0.00,open2300 v1.10,2013-02-07 06:10:00,
2013-02-07 00:17:00,49.8,38.5,30.04,ESE,112,0.0,-999.0,65,0.00,,,0.00,open2300 v1.10,2013-02-07 06:17:00,
2013-02-07 00:25:00,49.8,38.5,30.04,ESE,112,0.0,-999.0,65,0.00,,,0.00,open2300 v1.10,2013-02-07 06:25:00,
2013-02-07 00:32:00,49.8,38.5,30.04,ESE,112,0.0,-999.0,65,0.00,,,0.00,open2300 v1.10,2013-02-07 06:32:00,
2013-02-07 00:40:00,49.8,38.5,30.04,ESE,112,0.0,-999.0,65,0.00,,,0.00,open2300 v1.10,2013-02-07 06:40:00,
2013-02-07 00:47:00,49.8,38.5,30.03,ESE,112,0.0,-999.0,65,0.00,,,0.00,open2300 v1.10,2013-02-07 06:47:00,
2013-02-07 00:55:00,49.8,38.5,30.04,ESE,112,0.0,-999.0,65,0.00,,,0.00,open2300 v1.10,2013-02-07 06:55:00,
2013-02-07 01:05:00,49.8,38.5,30.04,ESE,112,0.0,-999.0,65,0.00,,,0.00,open2300 v1.10,2013-02-07 07:05:00,
2013-02-07 01:10:00,50.2,38.8,30.04,ESE,112,0.0,-999.0,65,0.00,,,0.00,open2300 v1.10,2013-02-07 07:10:00,
2013-02-07 01:17:00,50.2,38.8,30.04,ESE,112,0.0,-999.0,65,0.00,,,0.00,open2300 v1.10,2013-02-07 07:17:00,
2013-02-07 01:25:00,50.2,38.8,30.03,ESE,112,0.0,-999.0,65,0.00,,,0.00,open2300 v1.10,2013-02-07 07:25:00,
2013-02-07 01:32:00,50.4,39.0,30.03,ESE,112,0.0,-999.0,65,0.00,,,0.00,open2300 v1.10,2013-02-07 07:32:00,
2013-02-07 01:40:00,50.4,39.0,30.02,ESE,112,0.0,-999.0,65,0.00,,,0.00,open2300 v1.10,2013-02-07 07:40:00,
2013-02-07 01:47:00,50.4,39.0,30.02,ESE,112,0.0,-999.0,65,0.00,,,0.00,open2300 v1.10,2013-02-07 07:47:00,
2013-02-07 01:55:00,50.4,39.0,30.02,ESE,112,0.0,-999.0,65,0.00,,,0.00,open2300 v1.10,2013-02-07 07:55:00,
2013-02-07 02:03:00,50.2,38.8,30.02,ESE,112,0.0,-999.0,65,0.00,,,0.00,open2300 v1.10,2013-02-07 08:03:00,
2013-02-07 02:10:00,50.2,38.8,30.02,ESE,112,0.0,-999.0,65,0.00,,,0.00,open2300 v1.10,2013-02-07 08:10:00,
2013-02-07 02:17:00,50.2,38.8,30.02,ESE,112,0.0,-999.0,65,0.00,,,0.00,open2300 v1.10,2013-02-07 08:17:00,
2013-02-07 02:25:00,50.2,38.8,30.02,ESE,112,0.0,-999.0,65,0.00,,,0.00,open2300 v1.10,2013-02-07 08:25:00,
2013-02-07 02:32:00,50.2,38.8,30.02,ESE,112,0.0,-999.0,65,0.00,,,0.00,open2300 v1.10,2013-02-07 08:32:00,
2013-02-07 02:40:00,50.2,38.8,30.02,ESE,112,0.0,-999.0,65,0.00,,,0.00,open2300 v1.10,2013-02-07 08:40:00,
2013-02-07 02:47:00,50.2,38.8,30.02,ESE,112,0.0,-999.0,65,0.00,,,0.00,open2300 v1.10,2013-02-07 08:47:00,
2013-02-07 02:55:00,50.5,39.2,30.02,ESE,112,0.0,-999.0,65,0.00,,,0.00,open2300 v1.10,2013-02-07 08:55:00,
2013-02-07 03:03:00,50.7,38.9,30.02,ESE,112,0.0,-999.0,64,0.00,,,0.00,open2300 v1.10,2013-02-07 09:03:00,
2013-02-07 03:10:00,50.9,39.1,30.02,ESE,112,0.0,-999.0,64,0.00,,,0.00,open2300 v1.10,2013-02-07 09:10:00,
2013-02-07 03:17:00,50.7,38.9,30.01,ESE,112,0.0,-999.0,64,0.00,,,0.00,open2300 v1.10,2013-02-07 09:17:00,
2013-02-07 03:25:00,50.9,39.1,30.01,ESE,112,0.0,-999.0,64,0.00,,,0.00,open2300 v1.10,2013-02-07 09:25:00,
2013-02-07 03:32:00,50.9,39.1,30.01,ESE,112,0.0,-999.0,64,0.00,,,0.00,open2300 v1.10,2013-02-07 09:32:00,
2013-02-07 03:40:00,50.9,39.1,30.01,ESE,112,0.0,-999.0,64,0.00,,,0.00,open2300 v1.10,2013-02-07 09:40:00,
2013-02-07 03:47:00,50.7,38.9,30.01,ESE,112,0.0,-999.0,64,0.00,,,0.00,open2300 v1.10,2013-02-07 09:47:00,
2013-02-07 03:55:00,50.4,38.6,30.01,ESE,112,0.0,-999.0,64,0.00,,,0.00,open2300 v1.10,2013-02-07 09:55:00,
2013-02-07 04:03:00,50.2,38.8,30.01,ESE,112,0.0,-999.0,65,0.00,,,0.00,open2300 v1.10,2013-02-07 10:03:00,
2013-02-07 04:10:00,49.8,38.5,30.01,ESE,112,0.0,-999.0,65,0.00,,,0.00,open2300 v1.10,2013-02-07 10:10:00,
2013-02-07 04:17:00,49.8,38.5,30.01,ESE,112,0.0,-999.0,65,0.00,,,0.00,open2300 v1.10,2013-02-07 10:17:00,
2013-02-07 04:25:00,49.8,38.5,30.00,ESE,112,0.0,-999.0,65,0.00,,,0.00,open2300 v1.10,2013-02-07 10:25:00,
2013-02-07 04:32:00,49.8,38.9,30.00,ESE,112,0.0,-999.0,66,0.00,,,0.00,open2300 v1.10,2013-02-07 10:32:00,
2013-02-07 04:40:00,49.8,39.3,30.00,ESE,112,0.0,-999.0,67,0.00,,,0.00,open2300 v1.10,2013-02-07 10:40:00,
2013-02-07 04:47:00,49.8,39.3,30.00,ESE,112,0.0,-999.0,67,0.00,,,0.00,open2300 v1.10,2013-02-07 10:47:00,
2013-02-07 04:55:00,50.2,40.0,30.00,ESE,112,0.0,-999.0,68,0.00,,,0.00,open2300 v1.10,2013-02-07 10:55:00,
2013-02-07 05:03:00,50.4,40.2,30.00,ESE,112,0.0,-999.0,68,0.00,,,0.00,open2300 v1.10,2013-02-07 11:03:00,
2013-02-07 05:10:00,50.7,40.5,29.99,ESE,112,0.0,-999.0,68,0.00,,,0.00,open2300 v1.10,2013-02-07 11:10:00,
2013-02-07 05:17:00,50.9,40.7,29.99,ESE,112,0.0,-999.0,68,0.00,,,0.00,open2300 v1.10,2013-02-07 11:17:00,
2013-02-07 05:25:00,51.4,41.2,29.99,SSW,202,0.0,-999.0,68,0.00,,,0.00,open2300 v1.10,2013-02-07 11:25:00,
2013-02-07 05:32:00,51.6,41.4,29.98,SSW,202,0.0,-999.0,68,0.00,,,0.00,open2300 v1.10,2013-02-07 11:32:00,
2013-02-07 05:40:00,52.0,42.2,29.98,SE,135,0.0,-999.0,69,0.00,,,0.00,open2300 v1.10,2013-02-07 11:40:00,
2013-02-07 05:47:00,52.0,42.6,29.99,SW,225,0.0,-999.0,70,0.00,,,0.00,open2300 v1.10,2013-02-07 11:47:00,
2013-02-07 05:55:00,52.0,42.6,29.98,SW,225,0.0,-999.0,70,0.00,,,0.00,open2300 v1.10,2013-02-07 11:55:00,
2013-02-07 06:03:00,52.0,42.6,29.98,SSW,202,0.0,-999.0,70,0.00,,,0.00,open2300 v1.10,2013-02-07 12:03:00,
2013-02-07 06:11:00,51.8,42.8,29.98,SSW,202,0.0,-999.0,71,0.00,,,0.00,open2300 v1.10,2013-02-07 12:11:00,
2013-02-07 06:17:00,51.6,42.9,29.98,SSW,202,0.0,-999.0,72,0.00,,,0.00,open2300 v1.10,2013-02-07 12:17:00,
2013-02-07 06:25:00,51.6,42.9,29.98,South,180,0.0,-999.0,72,0.00,,,0.00,open2300 v1.10,2013-02-07 12:25:00,
2013-02-07 06:32:00,51.6,43.3,29.98,SE,135,0.0,-999.0,73,0.00,,,0.00,open2300 v1.10,2013-02-07 12:32:00,
2013-02-07 06:41:00,51.4,43.1,29.98,SE,135,0.0,-999.0,73,0.00,,,0.00,open2300 v1.10,2013-02-07 12:41:00,
2013-02-07 06:47:00,51.4,43.8,29.98,SSE,157,0.0,-999.0,75,0.00,,,0.00,open2300 v1.10,2013-02-07 12:47:00,
2013-02-07 06:55:00,51.4,43.8,29.98,SSE,157,0.0,-999.0,75,0.00,,,0.00,open2300 v1.10,2013-02-07 12:55:00,
2013-02-07 07:03:00,51.3,43.6,29.98,SSE,157,0.0,-999.0,75,0.00,,,0.00,open2300 v1.10,2013-02-07 13:03:00,
2013-02-07 07:10:00,51.3,43.6,29.98,SSE,157,0.0,-999.0,75,0.00,,,0.00,open2300 v1.10,2013-02-07 13:10:00,
2013-02-07 07:17:00,51.1,43.4,29.97,SSE,157,0.0,-999.0,75,0.00,,,0.00,open2300 v1.10,2013-02-07 13:17:00,
2013-02-07 07:25:00,51.1,43.4,29.97,SSE,157,0.0,-999.0,75,0.00,,,0.00,open2300 v1.10,2013-02-07 13:25:00,
2013-02-07 07:32:00,51.3,43.6,29.97,SSE,157,0.0,-999.0,75,0.00,,,0.00,open2300 v1.10,2013-02-07 13:32:00,
2013-02-07 07:40:00,51.1,43.8,29.97,SSE,157,0.0,-999.0,76,0.00,,,0.00,open2300 v1.10,2013-02-07 13:40:00,
2013-02-07 07:47:00,51.3,44.3,29.97,SSE,157,0.0,-999.0,77,0.00,,,0.00,open2300 v1.10,2013-02-07 13:47:00,
2013-02-07 07:55:00,51.4,44.5,29.98,SSE,157,0.0,-999.0,77,0.00,,,0.00,open2300 v1.10,2013-02-07 13:55:00,
2013-02-07 08:03:00,51.4,44.5,29.98,SSE,157,0.0,-999.0,77,0.00,,,0.00,open2300 v1.10,2013-02-07 14:03:00,
2013-02-07 08:10:00,51.6,44.7,29.98,SSE,157,0.0,-999.0,77,0.00,,,0.00,open2300 v1.10,2013-02-07 14:10:00,
2013-02-07 08:17:00,51.8,44.8,29.98,SSE,157,0.0,-999.0,77,0.00,,,0.00,open2300 v1.10,2013-02-07 14:17:00,
2013-02-07 08:25:00,52.3,45.4,29.98,SSE,157,0.0,-999.0,77,0.00,,,0.00,open2300 v1.10,2013-02-07 14:25:00,
2013-02-07 08:32:00,52.9,45.9,29.97,SE,135,0.0,-999.0,77,0.00,,,0.00,open2300 v1.10,2013-02-07 14:32:00,
2013-02-07 08:40:00,53.4,46.0,29.97,SE,135,0.0,-999.0,76,0.00,,,0.00,open2300 v1.10,2013-02-07 14:40:00,
2013-02-07 08:47:00,54.0,46.5,29.97,SE,135,0.0,-999.0,76,0.00,,,0.00,open2300 v1.10,2013-02-07 14:47:00,
2013-02-07 08:55:00,54.5,47.1,29.97,SE,135,0.0,-999.0,76,0.00,,,0.00,open2300 v1.10,2013-02-07 14:55:00,
2013-02-07 09:03:00,55.2,47.4,29.96,SE,135,0.0,-999.0,75,0.00,,,0.00,open2300 v1.10,2013-02-07 15:03:00,
2013-02-07 09:11:00,55.6,47.7,29.96,SE,135,0.0,-999.0,75,0.00,,,0.00,open2300 v1.10,2013-02-07 15:11:00,
2013-02-07 09:17:00,55.9,47.7,29.97,SE,135,0.0,-999.0,74,0.00,,,0.00,open2300 v1.10,2013-02-07 15:17:00,
2013-02-07 09:26:00,56.5,48.2,29.97,SE,135,0.0,-999.0,74,0.00,,,0.00,open2300 v1.10,2013-02-07 15:26:00,
2013-02-07 09:32:00,57.0,48.7,29.97,SE,135,0.0,-999.0,74,0.00,,,0.00,open2300 v1.10,2013-02-07 15:32:00,
2013-02-07 09:40:00,58.6,50.0,29.97,SE,135,0.0,-999.0,73,0.00,,,0.00,open2300 v1.10,2013-02-07 15:40:00,
2013-02-07 09:47:00,59.5,50.5,29.97,SSE,157,0.0,-999.0,72,0.00,,,0.00,open2300 v1.10,2013-02-07 15:47:00,
2013-02-07 09:56:00,61.3,51.6,29.97,SSE,157,0.0,-999.0,70,0.00,,,0.00,open2300 v1.10,2013-02-07 15:56:00,
2013-02-07 10:03:00,62.4,51.7,29.97,South,180,0.0,-999.0,68,0.00,,,0.00,open2300 v1.10,2013-02-07 16:03:00,
2013-02-07 10:11:00,63.1,52.0,29.97,SSW,202,0.0,-999.0,67,0.00,,,0.00,open2300 v1.10,2013-02-07 16:11:00,
2013-02-07 10:17:00,64.2,52.2,29.96,SW,225,0.0,-999.0,65,0.00,,,0.00,open2300 v1.10,2013-02-07 16:17:00,
2013-02-07 10:26:00,65.5,52.5,29.96,SSW,202,0.0,-999.0,63,0.00,,,0.00,open2300 v1.10,2013-02-07 16:26:00,
2013-02-07 10:32:00,66.0,52.6,29.96,SSW,202,0.0,-999.0,62,0.00,,,0.00,open2300 v1.10,2013-02-07 16:32:00,
2013-02-07 10:40:00,69.1,54.2,29.96,SW,225,0.0,-999.0,59,0.00,,,0.00,open2300 v1.10,2013-02-07 16:40:00,
2013-02-07 10:47:00,70.0,54.0,29.96,SW,225,0.0,-999.0,57,0.00,,,0.00,open2300 v1.10,2013-02-07 16:47:00,
2013-02-07 10:55:00,70.5,54.0,29.96,SSE,157,0.0,-999.0,56,0.00,,,0.00,open2300 v1.10,2013-02-07 16:55:00,
2013-02-07 11:03:00,69.8,53.4,29.96,SSE,157,0.0,-999.0,56,0.00,,,0.00,open2300 v1.10,2013-02-07 17:03:00,
2013-02-07 11:11:00,69.4,53.0,29.96,SSW,202,0.0,-999.0,56,0.00,,,0.00,open2300 v1.10,2013-02-07 17:11:00,
2013-02-07 11:17:00,68.7,51.8,29.96,WSW,247,0.0,-999.0,55,0.00,,,0.00,open2300 v1.10,2013-02-07 17:17:00,
2013-02-07 11:25:00,68.5,52.2,29.96,SSE,157,0.0,-999.0,56,0.00,,,0.00,open2300 v1.10,2013-02-07 17:25:00,
2013-02-07 11:32:00,69.3,51.8,29.96,NNW,337,0.0,-999.0,54,0.00,,,0.00,open2300 v1.10,2013-02-07 17:32:00,
2013-02-07 11:40:00,67.8,51.0,29.96,South,180,0.0,-999.0,55,0.00,,,0.00,open2300 v1.10,2013-02-07 17:40:00,
2013-02-07 11:47:00,66.4,50.7,29.96,South,180,0.0,-999.0,57,0.00,,,0.00,open2300 v1.10,2013-02-07 17:47:00,
2013-02-07 11:56:00,65.7,50.5,29.96,SW,225,0.0,-999.0,58,0.00,,,0.00,open2300 v1.10,2013-02-07 17:56:00,
2013-02-07 12:03:00,65.5,51.3,29.96,West,270,0.0,-999.0,60,0.00,,,0.00,open2300 v1.10,2013-02-07 18:03:00,
2013-02-07 12:10:00,66.0,51.3,29.95,West,270,0.0,-999.0,59,0.00,,,0.00,open2300 v1.10,2013-02-07 18:10:00,
2013-02-07 12:17:00,65.7,51.0,29.96,West,270,0.0,-999.0,59,0.00,,,0.00,open2300 v1.10,2013-02-07 18:17:00,
2013-02-07 12:26:00,66.0,51.8,29.94,SSE,157,0.0,-999.0,60,0.00,,,0.00,open2300 v1.10,2013-02-07 18:26:00,
2013-02-07 12:32:00,66.6,51.8,29.94,SSE,157,0.0,-999.0,59,0.00,,,0.00,open2300 v1.10,2013-02-07 18:32:00,
2013-02-07 12:40:00,67.6,52.3,29.94,WSW,247,0.0,-999.0,58,0.00,,,0.00,open2300 v1.10,2013-02-07 18:40:00,
2013-02-07 12:47:00,67.3,52.0,29.94,West,270,0.0,-999.0,58,0.00,,,0.00,open2300 v1.10,2013-02-07 18:47:00,
2013-02-07 12:55:00,66.9,52.1,29.94,WSW,247,0.0,-999.0,59,0.00,,,0.00,open2300 v1.10,2013-02-07 18:55:00,
2013-02-07 13:03:00,67.8,53.0,29.93,WSW,247,0.0,-999.0,59,0.00,,,0.00,open2300 v1.10,2013-02-07 19:03:00,
2013-02-07 13:10:00,68.4,52.5,29.93,SSE,157,0.0,-999.0,57,0.00,,,0.00,open2300 v1.10,2013-02-07 19:10:00,
2013-02-07 13:17:00,68.4,52.5,29.93,SW,225,0.0,-999.0,57,0.00,,,0.00,open2300 v1.10,2013-02-07 19:17:00,
2013-02-07 13:26:00,68.2,52.3,29.92,SW,225,0.0,-999.0,57,0.00,,,0.00,open2300 v1.10,2013-02-07 19:26:00,
2013-02-07 13:32:00,68.4,52.5,29.91,SSE,157,0.0,-999.0,57,0.00,,,0.00,open2300 v1.10,2013-02-07 19:32:00,
2013-02-07 13:41:00,69.3,52.9,29.91,South,180,0.0,-999.0,56,0.00,,,0.00,open2300 v1.10,2013-02-07 19:41:00,
2013-02-07 13:47:00,70.0,53.0,29.90,SE,135,0.0,-999.0,55,0.00,,,0.00,open2300 v1.10,2013-02-07 19:47:00,
2013-02-07 13:55:00,69.4,52.5,29.90,SSW,202,0.0,-999.0,55,0.00,,,0.00,open2300 v1.10,2013-02-07 19:55:00,
2013-02-07 14:03:00,68.7,51.8,29.90,South,180,0.0,-999.0,55,0.00,,,0.00,open2300 v1.10,2013-02-07 20:03:00,
2013-02-07 14:11:00,69.6,53.2,29.90,SSW,202,0.0,-999.0,56,0.00,,,0.00,open2300 v1.10,2013-02-07 20:11:00,
2013-02-07 14:17:00,70.3,52.9,29.90,SE,135,0.0,-999.0,54,0.00,,,0.00,open2300 v1.10,2013-02-07 20:17:00,
2013-02-07 14:26:00,70.3,52.9,29.89,SW,225,0.0,-999.0,54,0.00,,,0.00,open2300 v1.10,2013-02-07 20:26:00,
2013-02-07 14:32:00,69.6,52.2,29.89,SW,225,0.0,-999.0,54,0.00,,,0.00,open2300 v1.10,2013-02-07 20:32:00,
2013-02-07 14:40:00,70.2,52.7,29.89,SW,225,0.0,-999.0,54,0.00,,,0.00,open2300 v1.10,2013-02-07 20:40:00,
2013-02-07 14:47:00,70.2,52.7,29.89,SW,225,0.0,-999.0,54,0.00,,,0.00,open2300 v1.10,2013-02-07 20:47:00,
2013-02-07 14:55:00,68.7,51.8,29.88,SSW,202,0.0,-999.0,55,0.00,,,0.00,open2300 v1.10,2013-02-07 20:55:00,
2013-02-07 15:03:00,68.4,52.0,29.88,SE,135,0.0,-999.0,56,0.00,,,0.00,open2300 v1.10,2013-02-07 21:03:00,
2013-02-07 15:11:00,68.7,52.3,29.88,South,180,0.0,-999.0,56,0.00,,,0.00,open2300 v1.10,2013-02-07 21:11:00,
2013-02-07 15:17:00,69.6,53.2,29.89,SSE,157,0.0,-999.0,56,0.00,,,0.00,open2300 v1.10,2013-02-07 21:17:00,
2013-02-07 15:25:00,68.5,51.7,29.88,WSW,247,0.0,-999.0,55,0.00,,,0.00,open2300 v1.10,2013-02-07 21:25:00,
2013-02-07 15:32:00,67.6,51.3,29.88,SSE,157,0.0,-999.0,56,0.00,,,0.00,open2300 v1.10,2013-02-07 21:32:00,
2013-02-07 15:40:00,66.9,51.7,29.88,SSW,202,0.0,-999.0,58,0.00,,,0.00,open2300 v1.10,2013-02-07 21:40:00,
2013-02-07 15:47:00,67.6,52.3,29.88,SSE,157,0.0,-999.0,58,0.00,,,0.00,open2300 v1.10,2013-02-07 21:47:00,
2013-02-07 15:55:00,67.6,51.8,29.88,SSW,202,0.0,-999.0,57,0.00,,,0.00,open2300 v1.10,2013-02-07 21:55:00,
2013-02-07 16:03:00,66.9,51.7,29.88,SSE,157,0.0,-999.0,58,0.00,,,0.00,open2300 v1.10,2013-02-07 22:03:00,
2013-02-07 16:10:00,66.0,51.3,29.88,SSW,202,0.0,-999.0,59,0.00,,,0.00,open2300 v1.10,2013-02-07 22:10:00,
2013-02-07 16:17:00,65.5,51.3,29.88,SSW,202,0.0,-999.0,60,0.00,,,0.00,open2300 v1.10,2013-02-07 22:17:00,
2013-02-07 16:26:00,64.6,50.8,29.88,SSW,202,0.0,-999.0,61,0.00,,,0.00,open2300 v1.10,2013-02-07 22:26:00,
2013-02-07 16:32:00,64.2,50.9,29.88,SSW,202,0.0,-999.0,62,0.00,,,0.00,open2300 v1.10,2013-02-07 22:32:00,
2013-02-07 16:41:00,64.0,50.7,29.88,SSW,202,0.0,-999.0,62,0.00,,,0.00,open2300 v1.10,2013-02-07 22:41:00,
2013-02-07 16:47:00,63.9,51.0,29.88,SSW,202,0.0,-999.0,63,0.00,,,0.00,open2300 v1.10,2013-02-07 22:47:00,
2013-02-07 16:55:00,63.7,50.8,29.89,SSW,202,0.0,-999.0,63,0.00,,,0.00,open2300 v1.10,2013-02-07 22:55:00,
2013-02-07 17:03:00,63.7,51.2,29.89,SSW,202,0.0,-999.0,64,0.00,,,0.00,open2300 v1.10,2013-02-07 23:03:00,
2013-02-07 17:11:00,63.5,51.1,29.89,SSW,202,0.0,-999.0,64,0.00,,,0.00,open2300 v1.10,2013-02-07 23:11:00,
2013-02-07 17:17:00,63.3,50.9,29.90,SSW,202,0.0,-999.0,64,0.00,,,0.00,open2300 v1.10,2013-02-07 23:17:00,
2013-02-07 17:26:00,63.1,51.1,29.90,SSW,202,0.0,-999.0,65,0.00,,,0.00,open2300 v1.10,2013-02-07 23:26:00,
2013-02-07 17:32:00,63.0,51.4,29.90,SSW,202,0.0,-999.0,66,0.00,,,0.00,open2300 v1.10,2013-02-07 23:32:00,
2013-02-07 17:41:00,62.8,51.2,29.90,SSW,202,0.0,-999.0,66,0.00,,,0.00,open2300 v1.10,2013-02-07 23:41:00,
2013-02-07 17:47:00,62.6,51.0,29.90,SSW,202,0.0,-999.0,66,0.00,,,0.00,open2300 v1.10,2013-02-07 23:47:00,
2013-02-07 17:55:00,62.4,51.3,29.90,SSW,202,0.0,-999.0,67,0.00,,,0.00,open2300 v1.10,2013-02-07 23:55:00,
2013-02-07 18:03:00,62.4,51.7,29.91,WSW,247,0.0,-999.0,68,0.00,,,0.00,open2300 v1.10,2013-02-08 00:03:00,
2013-02-07 18:11:00,62.4,51.7,29.90,WSW,247,0.0,-999.0,68,0.00,,,0.00,open2300 v1.10,2013-02-08 00:11:00,
2013-02-07 18:17:00,62.4,52.1,29.90,WSW,247,0.0,-999.0,69,0.00,,,0.00,open2300 v1.10,2013-02-08 00:17:00,
2013-02-07 18:26:00,62.2,52.0,29.90,WSW,247,0.0,-999.0,69,0.00,,,0.00,open2300 v1.10,2013-02-08 00:26:00,
2013-02-07 18:32:00,61.9,52.0,29.91,WSW,247,0.0,-999.0,70,0.00,,,0.00,open2300 v1.10,2013-02-08 00:32:00,
2013-02-07 18:41:00,61.9,52.4,29.90,WSW,247,0.0,-999.0,71,0.00,,,0.00,open2300 v1.10,2013-02-08 00:41:00,
2013-02-07 18:47:00,61.7,52.2,29.91,WSW,247,0.0,-999.0,71,0.00,,,0.00,open2300 v1.10,2013-02-08 00:47:00,
2013-02-07 18:55:00,61.5,52.1,29.90,WSW,247,0.0,-999.0,71,0.00,,,0.00,open2300 v1.10,2013-02-08 00:55:00,
2013-02-07 19:03:00,61.3,51.9,29.90,WSW,247,0.0,-999.0,71,0.00,,,0.00,open2300 v1.10,2013-02-08 01:03:00,
2013-02-07 19:11:00,61.3,51.9,29.90,WSW,247,0.0,-999.0,71,0.00,,,0.00,open2300 v1.10,2013-02-08 01:11:00,
2013-02-07 19:17:00,61.2,51.8,29.90,WSW,247,0.0,-999.0,71,0.00,,,0.00,open2300 v1.10,2013-02-08 01:17:00,
2013-02-07 19:26:00,60.6,51.6,29.90,WSW,247,0.0,-999.0,72,0.00,,,0.00,open2300 v1.10,2013-02-08 01:26:00,
2013-02-07 19:32:00,60.4,51.8,29.90,WSW,247,0.0,-999.0,73,0.00,,,0.00,open2300 v1.10,2013-02-08 01:32:00,
2013-02-07 19:41:00,60.1,51.4,29.90,WSW,247,0.0,-999.0,73,0.00,,,0.00,open2300 v1.10,2013-02-08 01:41:00,
2013-02-07 19:47:00,59.7,51.4,29.89,WSW,247,0.0,-999.0,74,0.00,,,0.00,open2300 v1.10,2013-02-08 01:47:00,
2013-02-07 19:55:00,59.4,51.1,29.89,WSW,247,0.0,-999.0,74,0.00,,,0.00,open2300 v1.10,2013-02-08 01:55:00,
2013-02-07 20:03:00,58.8,50.9,29.89,WSW,247,0.0,-999.0,75,0.00,,,0.00,open2300 v1.10,2013-02-08 02:03:00,
2013-02-07 20:11:00,58.6,50.7,29.88,WSW,247,0.0,-999.0,75,0.00,,,0.00,open2300 v1.10,2013-02-08 02:11:00,
2013-02-07 20:17:00,57.9,50.0,29.88,WSW,247,0.0,-999.0,75,0.00,,,0.00,open2300 v1.10,2013-02-08 02:17:00,
2013-02-07 20:26:00,57.4,50.2,29.89,WSW,247,0.0,-999.0,77,0.00,,,0.00,open2300 v1.10,2013-02-08 02:26:00,
2013-02-07 20:32:00,57.4,50.5,29.89,WSW,247,0.0,-999.0,78,0.00,,,0.00,open2300 v1.10,2013-02-08 02:32:00,
2013-02-07 20:41:00,57.0,50.2,29.89,WSW,247,0.0,-999.0,78,0.00,,,0.00,open2300 v1.10,2013-02-08 02:41:00,
2013-02-07 20:47:00,57.0,50.5,29.90,WSW,247,0.0,-999.0,79,0.00,,,0.00,open2300 v1.10,2013-02-08 02:47:00,
2013-02-07 20:56:00,57.0,50.5,29.90,WSW,247,0.0,-999.0,79,0.00,,,0.00,open2300 v1.10,2013-02-08 02:56:00,
2013-02-07 21:03:00,56.8,50.4,29.90,WSW,247,0.0,-999.0,79,0.00,,,0.00,open2300 v1.10,2013-02-08 03:03:00,
2013-02-07 21:11:00,56.5,50.0,29.90,WSW,247,0.0,-999.0,79,0.00,,,0.00,open2300 v1.10,2013-02-08 03:11:00,
2013-02-07 21:17:00,56.3,49.8,29.90,WSW,247,0.0,-999.0,79,0.00,,,0.00,open2300 v1.10,2013-02-08 03:17:00,
2013-02-07 21:26:00,56.1,49.6,29.91,WSW,247,0.0,-999.0,79,0.00,,,0.00,open2300 v1.10,2013-02-08 03:26:00,
2013-02-07 21:32:00,55.9,49.5,29.90,WSW,247,0.0,-999.0,79,0.00,,,0.00,open2300 v1.10,2013-02-08 03:32:00,
2013-02-07 21:41:00,55.9,49.8,29.91,WSW,247,0.0,-999.0,80,0.00,,,0.00,open2300 v1.10,2013-02-08 03:41:00,
2013-02-07 21:47:00,55.9,49.8,29.91,WSW,247,0.0,-999.0,80,0.00,,,0.00,open2300 v1.10,2013-02-08 03:47:00,
2013-02-07 21:56:00,56.1,50.0,29.90,WSW,247,0.0,-999.0,80,0.00,,,0.00,open2300 v1.10,2013-02-08 03:56:00,
2013-02-07 22:03:00,55.8,49.6,29.91,WSW,247,0.0,-999.0,80,0.00,,,0.00,open2300 v1.10,2013-02-08 04:03:00,
2013-02-07 22:11:00,55.6,49.5,29.91,WSW,247,0.0,-999.0,80,0.00,,,0.00,open2300 v1.10,2013-02-08 04:11:00,
2013-02-07 22:17:00,55.6,49.5,29.91,WSW,247,0.0,-999.0,80,0.00,,,0.00,open2300 v1.10,2013-02-08 04:17:00,
2013-02-07 22:26:00,55.6,49.5,29.90,WSW,247,0.0,-999.0,80,0.00,,,0.00,open2300 v1.10,2013-02-08 04:26:00,
2013-02-07 22:32:00,55.4,49.3,29.91,WSW,247,0.0,-999.0,80,0.00,,,0.00,open2300 v1.10,2013-02-08 04:32:00,
2013-02-07 22:41:00,55.4,49.6,29.91,WSW,247,0.0,-999.0,81,0.00,,,0.00,open2300 v1.10,2013-02-08 04:41:00,
2013-02-07 22:47:00,55.6,50.1,29.91,WSW,247,0.0,-999.0,82,0.00,,,0.00,open2300 v1.10,2013-02-08 04:47:00,
2013-02-07 22:56:00,55.9,50.8,29.91,NW,315,0.0,-999.0,83,0.00,,,0.00,open2300 v1.10,2013-02-08 04:56:00,
2013-02-07 23:03:00,55.4,50.2,29.91,NW,315,0.0,-999.0,83,0.02,,,0.02,open2300 v1.10,2013-02-08 05:03:00,
2013-02-07 23:11:00,55.2,50.1,29.91,NW,315,0.0,-999.0,83,0.02,,,0.02,open2300 v1.10,2013-02-08 05:11:00,
2013-02-07 23:17:00,55.2,50.7,29.91,NW,315,0.0,-999.0,85,0.04,,,0.04,open2300 v1.10,2013-02-08 05:17:00,
2013-02-07 23:26:00,55.2,50.7,29.91,NW,315,0.0,-999.0,85,0.04,,,0.04,open2300 v1.10,2013-02-08 05:26:00,
2013-02-07 23:32:00,55.2,51.0,29.90,NW,315,0.0,-999.0,86,0.04,,,0.04,open2300 v1.10,2013-02-08 05:32:00,
2013-02-07 23:41:00,55.0,50.9,29.90,NW,315,0.0,-999.0,86,0.04,,,0.04,open2300 v1.10,2013-02-08 05:41:00,
2013-02-07 23:47:00,55.0,50.9,29.90,NW,315,0.0,-999.0,86,0.04,,,0.04,open2300 v1.10,2013-02-08 05:47:00,
2013-02-07 23:56:00,55.0,51.2,29.90,NW,315,0.0,-999.0,87,0.02,,,0.04,open2300 v1.10,2013-02-08 05:56:00,